ONEWEB-0251 (48969 NORAD) Tracking and Keplerian Element Data

This shows tracking and keplerian element data for the satellite.

Feedback or suggestion? Click here.




ElementValue
Catalog48969
NameONEWEB-0251
Epoch Orbit362
Epoch Day210.91668981
Epoch Year2021
RAAN227.3448
Inclination87.3993
Eccentricity0.0010815
Argument of Perigee165.3264
Mean Anonmoly15.0782
Mean Motion15.36955374
Decay Rate0.00076878
L11 48969U 21060C 21210.91668981 .00076878 00000-0 21065-2 0 9991
L22 48969 87.3993 227.3448 0010815 165.3264 15.0782 15.36955374 3621

Live tracking and technical data element details for ONEWEB-0251 (NORAD 48969). ONEWEB-0251 can be tracked NOW for your location showing map with azimuth and elevation plus other details from your city location.

Track the satellite on the map from your city or location and see movement details for azimuth, elevation, latitude, longitude, range, height, and movement on the map or in text.







IsCatalogInMostPopularTable: catalog: 48969, numindb: 3
Update: records affected: 1



GetName: 48969 ONEWEB-0251

Hit Count: updated at: Sat, 31 Jul 2021 16:05:06 GMT